Location: Ferchesar
(52.6477°N, 12.4298°E)
Time: 16:44:58
(UTC+01:00)

Vanguard 3 - Visible Passes

Search period start: 03 December 2022 00:00
Search period end: 13 December 2022 00:00
Orbit: 509 x 3255 km, 33.3° (Epoch: 02 December)

Date Brightness Start Highest point End Pass type
(mag) Time Alt. Az. Time Alt. Az. Time Alt. Az.
03 Dec 10.8 18:18:09 10° WSW 18:26:47 24° SSW 18:38:39 10° SSE visible
03 Dec 11.4 20:33:42 10° SW 20:39:14 13° SW 20:45:27 10° SSW visible
04 Dec 10.6 17:03:42 10° SW 17:11:19 25° S 17:22:21 10° SE visible
04 Dec 11.1 19:16:11 10° WSW 19:23:36 17° SSW 19:32:54 10° S visible
05 Dec 10.9 18:00:44 10° WSW 18:08:05 21° SSW 18:18:02 10° SSE visible
06 Dec 10.7 16:46:15 10° SW 16:52:48 22° S 17:02:04 10° SE visible
06 Dec 11.3 18:59:29 10° SW 19:04:51 14° SSW 19:11:16 10° S visible
07 Dec 11.0 17:43:36 10° SW 17:49:30 17° SSW 17:57:10 10° SSE visible
08 Dec 10.8 16:29:01 10° SW 16:34:24 18° S 16:41:41 10° SSE visible
08 Dec 11.4 18:45:25 10° SSW 18:46:13 10° SSW 18:47:02 10° SSW visible
09 Dec 11.2 17:27:05 10° SW 17:31:03 13° SSW 17:35:47 10° S visible
